When you browse on this site, cookies collect data to enhance your experience and personalize the content and advertising you see.
Visit our Privacy Policy to learn more. By continuing to use the site, you agree to this use of cookies and data.
  • en France
  • Liste des pays
  • À 7 jours
  • Température de l'eau
  • Carte météo
  • Widgets météo
  • user-avatar
    Se connecter

    Météo par heure à Balakan

    Ce jour, 19 Septembre, Jeudi

    Heure Température Précipitation Vent Pression Humidité
    00:00 +21°C° 0 mm 1 m/s 729 mmHg 40%
    01:00 +20°C° 0 mm 1 m/s 728 mmHg 41%
    02:00 +20°C° 0 mm 1 m/s 728 mmHg 43%
    03:00 +20°C° 0 mm 1 m/s 728 mmHg 44%
    04:00 +20°C° 0 mm 1 m/s 728 mmHg 43%
    05:00 +20°C° 0 mm 1 m/s 729 mmHg 43%
    06:00 +19°C° 0 mm 1 m/s 729 mmHg 42%
    07:00 +21°C° 0 mm 2 m/s 729 mmHg 37%
    08:00 +25°C° 0 mm 2 m/s 729 mmHg 33%
    09:00 +28°C° 0 mm 2 m/s 730 mmHg 27%
    10:00 +29°C° 0 mm 2 m/s 730 mmHg 25%
    11:00 +31°C° 0 mm 3 m/s 730 mmHg 23%
    12:00 +33°C° 0 mm 3 m/s 730 mmHg 20%
    13:00 +33°C° 0 mm 3 m/s 730 mmHg 20%
    14:00 +33°C° 0 mm 3 m/s 729 mmHg 19%
    15:00 +34°C° 0 mm 3 m/s 729 mmHg 19%
    16:00 +30°C° 0 mm 2 m/s 729 mmHg 23%
    17:00 +28°C° 0 mm 2 m/s 729 mmHg 27%
    18:00 +25°C° 0 mm 2 m/s 730 mmHg 31%
    19:00 +25°C° 0 mm 2 m/s 730 mmHg 31%
    20:00 +24°C° 0 mm 2 m/s 730 mmHg 31%
    21:00 +23°C° 0 mm 2 m/s 730 mmHg 31%
    22:00 +21°C° 0 mm 2 m/s 730 mmHg 40%
    23:00 +21°C° 0 mm 1 m/s 730 mmHg 48%

    Demain, 20 Septembre, Vendredi

    Heure Température Précipitation Vent Pression Humidité
    00:00 +20°C° 0 mm 1 m/s 730 mmHg 56%
    01:00 +20°C° 0 mm 1 m/s 730 mmHg 60%
    02:00 +19°C° 0 mm 1 m/s 730 mmHg 64%
    03:00 +19°C° 0 mm 1 m/s 729 mmHg 68%
    04:00 +19°C° 0 mm 1 m/s 729 mmHg 70%
    05:00 +18°C° 0 mm 1 m/s 729 mmHg 71%
    06:00 +16°C° 0 mm 0 m/s 729 mmHg 73%
    07:00 +20°C° 0 mm 1 m/s 729 mmHg 69%
    08:00 +22°C° 0 mm 1 m/s 729 mmHg 65%
    09:00 +24°C° 0 mm 1 m/s 729 mmHg 61%
    10:00 +25°C° 0 mm 2 m/s 728 mmHg 59%
    11:00 +26°C° 0 mm 2 m/s 728 mmHg 56%
    12:00 +27°C° 0 mm 2 m/s 727 mmHg 53%
    13:00 +28°C° 0 mm 2 m/s 727 mmHg 52%
    14:00 +28°C° 0 mm 2 m/s 726 mmHg 50%
    15:00 +29°C° 0 mm 2 m/s 725 mmHg 49%
    16:00 +27°C° 0 mm 2 m/s 725 mmHg 54%
    17:00 +25°C° 0 mm 1 m/s 725 mmHg 59%
    18:00 +23°C° 0 mm 1 m/s 725 mmHg 64%
    19:00 +23°C° 0 mm 1 m/s 724 mmHg 64%
    20:00 +22°C° 0 mm 1 m/s 724 mmHg 65%
    21:00 +22°C° 0 mm 1 m/s 724 mmHg 65%
    22:00 +21°C° 0 mm 1 m/s 724 mmHg 67%
    23:00 +21°C° 0 mm 1 m/s 724 mmHg 68%

    Après-demain, 21 Septembre, Samedi

    Heure Température Précipitation Vent Pression Humidité
    00:00 +21°C° 0 mm 1 m/s 724 mmHg 69%
    01:00 +20°C° 0 mm 1 m/s 723 mmHg 70%
    02:00 +20°C° 0 mm 1 m/s 723 mmHg 71%
    03:00 +20°C° 0 mm 1 m/s 723 mmHg 72%
    04:00 +20°C° 0 mm 1 m/s 723 mmHg 72%
    05:00 +20°C° 0 mm 1 m/s 723 mmHg 73%
    06:00 +20°C° 0 mm 1 m/s 723 mmHg 73%
    07:00 +21°C° 0 mm 2 m/s 723 mmHg 68%
    08:00 +24°C° 0 mm 3 m/s 724 mmHg 62%
    09:00 +26°C° 0 mm 3 m/s 724 mmHg 56%
    10:00 +27°C° 0 mm 4 m/s 724 mmHg 51%
    11:00 +28°C° 0 mm 5 m/s 724 mmHg 46%
    12:00 +29°C° 0 mm 5 m/s 724 mmHg 41%
    13:00 +28°C° 0.1 mm 7 m/s 724 mmHg 42%
    14:00 +26°C° 0.1 mm 8 m/s 724 mmHg 43%
    15:00 +24°C° 0.1 mm 9 m/s 724 mmHg 44%
    16:00 +23°C° 0.2 mm 7 m/s 725 mmHg 49%
    17:00 +21°C° 0.2 mm 5 m/s 726 mmHg 55%
    18:00 +19°C° 0.2 mm 3 m/s 726 mmHg 60%
    19:00 +18°C° 0 mm 3 m/s 727 mmHg 62%
    20:00 +17°C° 0 mm 3 m/s 728 mmHg 63%
    21:00 +17°C° 0 mm 2 m/s 728 mmHg 65%
    22:00 +15°C° 0 mm 2 m/s 729 mmHg 67%
    23:00 +14°C° 0 mm 2 m/s 729 mmHg 69%

    22 Septembre, Dimanche

    Heure Température Précipitation Vent Pression Humidité
    00:00 +13°C° 0 mm 2 m/s 729 mmHg 71%
    01:00 +13°C° 0 mm 2 m/s 729 mmHg 70%
    02:00 +12°C° 0 mm 2 m/s 730 mmHg 70%
    03:00 +12°C° 0 mm 2 m/s 730 mmHg 69%
    04:00 +11°C° 0 mm 1 m/s 730 mmHg 68%
    05:00 +11°C° 0 mm 1 m/s 730 mmHg 66%
    06:00 +11°C° 0 mm 1 m/s 731 mmHg 64%
    07:00 +13°C° 0 mm 1 m/s 731 mmHg 57%
    08:00 +15°C° 0 mm 2 m/s 731 mmHg 50%
    09:00 +18°C° 0 mm 2 m/s 732 mmHg 44%
    10:00 +19°C° 0 mm 2 m/s 732 mmHg 40%
    11:00 +20°C° 0 mm 2 m/s 731 mmHg 37%
    12:00 +21°C° 0 mm 2 m/s 731 mmHg 33%
    13:00 +21°C° 0 mm 2 m/s 731 mmHg 33%
    14:00 +21°C° 0 mm 2 m/s 730 mmHg 33%
    15:00 +21°C° 0 mm 2 m/s 730 mmHg 33%
    16:00 +19°C° 0 mm 2 m/s 730 mmHg 39%
    17:00 +18°C° 0 mm 2 m/s 730 mmHg 45%
    18:00 +16°C° 0 mm 1 m/s 730 mmHg 50%
    19:00 +15°C° 0 mm 1 m/s 730 mmHg 50%
    20:00 +15°C° 0 mm 1 m/s 730 mmHg 50%
    21:00 +15°C° 0 mm 1 m/s 730 mmHg 50%
    22:00 +14°C° 0 mm 1 m/s 730 mmHg 52%
    23:00 +14°C° 0 mm 1 m/s 730 mmHg 54%

    23 Septembre, Lundi

    Heure Température Précipitation Vent Pression Humidité
    00:00 +13°C° 0 mm 1 m/s 730 mmHg 56%
    01:00 +13°C° 0 mm 1 m/s 730 mmHg 58%
    02:00 +13°C° 0 mm 1 m/s 729 mmHg 59%
    03:00 +12°C° 0 mm 1 m/s 729 mmHg 60%
    04:00 +12°C° 0 mm 1 m/s 729 mmHg 60%
    05:00 +12°C° 0 mm 1 m/s 729 mmHg 60%
    06:00 +12°C° 0 mm 1 m/s 730 mmHg 59%
    07:00 +14°C° 0 mm 1 m/s 730 mmHg 53%
    08:00 +17°C° 0 mm 2 m/s 730 mmHg 47%
    09:00 +19°C° 0 mm 2 m/s 730 mmHg 41%
    10:00 +20°C° 0 mm 2 m/s 730 mmHg 38%
    11:00 +23°C° 0 mm 2 m/s 730 mmHg 36%
    12:00 +24°C° 0 mm 2 m/s 730 mmHg 33%
    13:00 +25°C° 0 mm 2 m/s 730 mmHg 31%
    14:00 +25°C° 0 mm 2 m/s 730 mmHg 30%
    15:00 +25°C° 0 mm 1 m/s 730 mmHg 29%
    16:00 +23°C° 0 mm 2 m/s 730 mmHg 34%
    17:00 +20°C° 0 mm 2 m/s 730 mmHg 40%
    18:00 +18°C° 0 mm 2 m/s 730 mmHg 45%
    19:00 +17°C° 0 mm 2 m/s 731 mmHg 46%
    20:00 +17°C° 0 mm 2 m/s 731 mmHg 46%
    21:00 +16°C° 0 mm 2 m/s 732 mmHg 47%
    22:00 +16°C° 0 mm 2 m/s 732 mmHg 56%
    23:00 +15°C° 0 mm 2 m/s 732 mmHg 66%

    24 Septembre, Mardi

    Heure Température Précipitation Vent Pression Humidité
    00:00 +14°C° 0 mm 2 m/s 732 mmHg 75%
    01:00 +14°C° 0 mm 1 m/s 732 mmHg 75%
    02:00 +15°C° 0 mm 1 m/s 732 mmHg 74%
    03:00 +15°C° 0 mm 1 m/s 732 mmHg 73%
    04:00 +15°C° 0 mm 1 m/s 732 mmHg 73%
    05:00 +15°C° 0 mm 1 m/s 732 mmHg 73%
    06:00 +15°C° 0 mm 1 m/s 732 mmHg 74%
    07:00 +18°C° 0 mm 1 m/s 732 mmHg 69%
    08:00 +18°C° 0 mm 2 m/s 732 mmHg 64%
    09:00 +19°C° 0 mm 2 m/s 732 mmHg 60%
    10:00 +20°C° 0 mm 2 m/s 732 mmHg 60%
    11:00 +20°C° 0 mm 2 m/s 732 mmHg 61%
    12:00 +20°C° 0 mm 2 m/s 731 mmHg 62%
    13:00 +20°C° 0 mm 2 m/s 731 mmHg 61%
    14:00 +20°C° 0 mm 2 m/s 731 mmHg 60%
    15:00 +21°C° 0 mm 2 m/s 730 mmHg 60%
    16:00 +21°C° 0 mm 1 m/s 730 mmHg 64%
    17:00 +20°C° 0 mm 1 m/s 730 mmHg 68%
    18:00 +18°C° 0 mm 1 m/s 730 mmHg 72%
    19:00 +16°C° 0 mm 1 m/s 730 mmHg 74%
    20:00 +16°C° 0 mm 1 m/s 730 mmHg 75%
    21:00 +14°C° 0 mm 0 m/s 730 mmHg 77%
    22:00 +14°C° 0 mm 0 m/s 729 mmHg 77%
    23:00 +13°C° 0 mm 0 m/s 729 mmHg 77%
    Voir plus